DW8932 Weather Reports


time (UTC)temp
C
wind
direction
speed
KPH
gust
KPH
rain 1hr
cm
rain 24hr
cm
rain mn
cm
humidity
%
barometer
mb
20260510115705 8 38 8.0 19.3 0.00 0.86 0.00 77 1015.5
20260510115204 8 12 6.4 12.9 0.00 0.86 0.00 78 1014.6
20260510114704 8 45 8.0 16.1 0.00 0.86 0.00 78 1014.6
20260510114204 8 44 8.0 19.3 0.00 0.86 0.00 78 1014.6
20260510113205 8 47 4.8 11.3 0.00 0.86 0.00 80 1014.6
20260510112704 8 38 3.2 12.9 0.00 0.86 0.00 81 1014.6
20260510111204 8 8 6.4 19.3 0.00 0.86 0.00 82 1014.3
20260510110704 8 44 6.4 14.5 0.00 0.86 0.00 83 1014.2
20260510110204 8 17 8.0 12.9 0.00 0.86 0.00 83 1014.2
20260510105204 8 54 1.6 12.9 0.00 0.86 0.00 86 1013.4
20260510104704 8 38 4.8 11.3 0.00 0.86 0.00 86 1013.4
20260510103705 8 12 4.8 14.5 0.00 0.86 0.00 86 1013.4
20260510103205 8 21 4.8 12.9 0.00 0.86 0.00 86 1013.4
20260510102704 8 23 3.2 11.3 0.00 0.86 0.00 86 1013.0
20260510101205 8 17 3.2 8.0 0.00 0.86 0.00 85 1013.0
20260510100204 8 37 0.0 12.9 0.00 0.86 0.00 85 1013.1
20260510095705 8 21 3.2 9.7 0.00 0.86 0.00 85 1013.0
20260510095205 8 27 6.4 11.3 0.00 0.86 0.00 85 1013.0
20260510094704 8 34 3.2 9.7 0.00 0.86 0.00 85 1013.0
20260510094204 8 28 4.8 11.3 0.00 0.86 0.00 85 1012.7
20260510093205 8 6 3.2 14.5 0.00 0.86 0.00 85 1012.6
20260510092705 8 40 4.8 16.1 0.00 0.86 0.00 85 1012.6
20260510091204 8 39 3.2 9.7 0.00 0.86 0.00 86 1012.1
20260510090705 8 19 1.6 4.8 0.00 0.86 0.00 85 1012.2
20260510090204 8 18 0.0 8.0 0.00 0.86 0.00 86 1011.9
20260510085705 8 29 0.0 0.0 0.00 0.86 0.00 85 1011.9
20260510085205 8 29 0.0 0.0 0.00 0.86 0.00 85 1011.9
20260510084705 8 29 0.0 0.0 0.00 0.86 0.00 84 1011.7
20260510084204 8 28 0.0 0.0 0.00 0.86 0.00 84 1011.7
20260510083704 8 38 0.0 0.0 0.00 0.86 0.00 83 1011.7
20260510083204 8 38 0.0 0.0 0.00 0.86 0.00 82 1011.7
20260510082704 8 40 0.0 0.0 0.00 0.86 0.00 81 1010.9
20260510082205 8 40 0.0 0.0 0.00 0.86 0.00 81 1010.9
20260510081704 9 40 0.0 0.0 0.00 0.86 0.00 81 1010.9
20260510081205 9 40 0.0 0.0 0.00 0.86 0.00 81 1010.9
20260510080704 9 40 0.0 0.0 0.00 0.86 0.00 81 1010.9
20260510075704 9 40 0.0 0.0 0.00 0.86 0.00 81 1010.9
20260510075204 9 40 0.0 0.0 0.00 0.86 0.00 81 1010.8
20260510073204 10 39 0.0 0.0 0.00 0.86 0.00 79 1010.6
20260510072704 10 33 0.0 0.0 0.00 0.86 0.00 79 1010.6
20260510072204 10 32 0.0 0.0 0.00 0.86 0.00 79 1010.5
20260510071704 10 32 0.0 1.6 0.00 0.86 0.00 79 1010.5
20260510071204 10 33 1.6 3.2 0.00 0.86 0.00 78 1010.5
20260510065204 10 51 3.2 12.9 0.00 0.86 0.00 78 1010.3
20260510064704 10 40 4.8 9.7 0.00 0.86 0.00 79 1010.3
20260510063705 10 64 4.8 9.7 0.00 0.86 0.00 79 1010.2
20260510062704 10 65 6.4 12.9 0.00 0.86 0.00 80 1010.2
20260510062204 10 69 4.8 14.5 0.00 0.86 0.00 80 1010.2
20260510061204 10 66 8.0 12.9 0.00 0.86 0.00 82 1010.3
20260510060704 10 40 3.2 11.3 0.00 0.86 0.00 82 1009.9
20260510055705 11 28 6.4 19.3 0.00 0.86 0.00 83 1009.9
20260510055205 11 50 14.5 22.5 0.00 0.86 0.00 83 1009.9
20260510054704 11 41 8.0 22.5 0.00 0.86 0.00 83 1009.9
20260510054204 12 19 14.5 20.9 0.00 0.86 0.00 85 1009.9
20260510053204 12 29 8.0 20.9 0.00 0.86 0.00 88 1009.4
20260510052705 12 49 3.2 8.0 0.00 0.86 0.00 88 1009.4
20260510052204 13 9 0.0 0.0 0.00 0.86 0.00 87 1009.1
20260510051704 13 9 0.0 0.0 0.00 0.86 0.00 87 1009.1
20260510051204 13 9 0.0 3.2 0.00 0.86 0.00 87 1009.0
20260510050704 13 305 0.0 4.8 0.00 0.86 0.00 87 1009.0
20260510050204 13 297 6.4 11.3 0.00 0.86 0.00 88 1009.0
20260510045705 12 305 0.0 11.3 0.00 0.86 0.00 88 1007.8
20260510045204 12 18 1.6 9.7 0.00 0.86 0.00 88 1007.8
20260510044704 12 8 4.8 11.3 0.00 0.86 0.00 88 1007.8
20260510044204 12 250 1.6 9.7 0.00 0.89 0.00 87 1007.8
20260510043704 12 207 0.0 4.8 0.00 0.89 0.00 87 1007.4
20260510043205 12 210 0.0 0.0 0.00 0.89 0.00 87 1007.4
20260510042204 13 181 0.0 0.0 0.00 0.89 0.00 86 1007.2
20260510041704 13 195 0.0 0.0 0.00 0.89 0.00 86 1007.2
20260510041205 13 180 0.0 1.6 0.00 0.89 0.00 85 1007.2
20260510040704 13 189 4.8 9.7 0.00 0.89 0.00 85 1007.2
20260510040205 13 236 0.0 8.0 0.00 0.89 0.00 85 1007.2
20260510034204 13 239 4.8 22.5 0.00 0.91 0.89 88 1007.2
20260510033704 13 205 0.0 9.7 0.00 0.91 0.89 89 1007.3
20260510033205 13 224 6.4 16.1 0.00 0.91 0.89 89 1007.5
20260510032205 12 251 3.2 20.9 0.00 0.91 0.89 89 1007.5
20260510031204 12 242 6.4 16.1 0.00 0.91 0.89 90 1007.4
20260510030704 12 235 1.6 16.1 0.00 0.91 0.89 91 1007.4
20260510030205 12 225 3.2 12.9 0.00 0.91 0.89 92 1007.2
20260510025205 12 191 3.2 8.0 0.00 0.91 0.89 92 1007.2
20260510024705 12 191 3.2 9.7 0.00 0.91 0.89 92 1007.2
20260510024204 12 187 3.2 8.0 0.00 0.91 0.89 92 1007.1
20260510023704 12 215 1.6 8.0 0.00 0.91 0.89 92 1007.1
20260510023204 12 238 3.2 19.3 0.00 0.91 0.89 93 1007.4
20260510022704 12 246 3.2 19.3 0.00 0.91 0.89 94 1006.8
20260510022204 12 212 8.0 19.3 0.00 0.91 0.89 94 1006.8
20260510021705 12 230 0.0 3.2 0.00 0.91 0.89 94 1006.8
20260510021204 12 186 0.0 0.0 0.00 0.91 0.89 94 1006.8
20260510020704 12 187 0.0 0.0 0.00 0.91 0.89 94 1006.8
20260510020204 12 185 0.0 0.0 0.00 0.91 0.89 93 1006.8
20260510015704 12 176 0.0 0.0 0.00 0.91 0.89 93 1006.8
20260510015204 12 153 0.0 0.0 0.00 0.91 0.89 93 1006.6
20260510014705 12 184 0.0 0.0 0.00 0.91 0.89 93 1006.6
20260510014205 12 202 0.0 0.0 0.00 0.91 0.89 93 1006.6
20260510013704 12 175 0.0 0.0 0.00 0.91 0.89 93 1006.6
20260510013204 12 177 0.0 0.0 0.00 0.91 0.89 93 1006.6
20260510012704 12 170 0.0 0.0 0.00 0.91 0.89 92 1006.5
20260510012205 12 184 0.0 0.0 0.00 0.91 0.89 92 1006.5
20260510011705 12 177 0.0 0.0 0.00 0.91 0.89 92 1006.5
20260510011204 12 184 0.0 0.0 0.00 0.91 0.89 92 1006.5
20260510010204 12 203 0.0 0.0 0.03 0.91 0.89 92 1006.5
20260510005705 12 219 0.0 0.0 0.03 0.94 0.89 92 1006.4
20260510004204 12 195 0.0 0.0 0.03 0.94 0.89 92 1006.4
20260510003205 12 202 0.0 0.0 0.03 0.94 0.89 91 1006.4
20260510002704 13 180 0.0 0.0 0.03 0.94 0.89 92 1006.3
20260510002204 13 230 0.0 1.6 0.03 0.94 0.89 92 1006.3
20260510001704 13 235 1.6 11.3 0.03 0.97 0.89 92 1006.3
20260510001205 13 245 3.2 9.7 0.03 0.97 0.89 92 1006.3
20260510000704 13 271 4.8 11.3 0.03 0.97 0.86 92 1006.4
20260510000205 13 250 3.2 16.1 0.03 0.97 0.86 93 1006.4
20260509235704 13 170 0.0 0.0 0.03 0.97 0.86 93 1006.4
20260509234704 13 198 6.4 11.3 0.20 0.99 0.86 92 1006.1
20260509234204 13 202 1.6 9.7 0.53 0.99 0.86 92 1006.3
20260509233705 13 197 4.8 14.5 0.79 1.02 0.86 92 1006.3
20260509233204 13 255 3.2 11.3 0.84 1.02 0.86 92 1006.3
20260509232704 13 225 4.8 12.9 0.84 1.04 0.86 92 1006.3
20260509231204 13 263 8.0 35.4 0.84 1.07 0.86 91 1006.3
20260509230704 13 271 6.4 16.1 0.81 1.07 0.84 91 1006.3
20260509225704 13 301 11.3 19.3 0.81 1.07 0.84 90 1006.2
20260509225204 13 296 11.3 25.7 0.76 1.04 0.79 88 1004.2
20260509224705 14 313 19.3 41.8 0.64 0.94 0.66 85 1004.2
20260509224205 15 311 32.2 51.5 0.30 0.66 0.33 79 1004.2
20260509223704 18 309 29.0 62.8 0.05 0.43 0.08 70 1004.2
20260509223205 19 280 14.5 29.0 0.00 0.41 0.03 60 1004.2
20260509222704 20 238 8.0 16.1 0.00 0.41 0.03 61 1003.7
20260509222205 20 266 9.7 16.1 0.00 0.41 0.03 56 1003.3
20260509221705 20 242 4.8 14.5 0.00 0.41 0.03 57 1003.6
20260509221204 20 221 9.7 20.9 0.00 0.43 0.03 56 1003.6
20260509220704 20 202 4.8 20.9 0.00 0.43 0.03 57 1003.8
20260509215704 20 241 9.7 24.1 0.00 0.46 0.03 56 1003.5
20260509214204 21 195 12.9 25.7 0.00 0.46 0.03 54 1003.5
20260509213705 22 237 11.3 38.6 0.00 0.46 0.03 54 1003.5
20260509212704 21 187 11.3 29.0 0.00 0.46 0.03 56 1003.6
20260509212205 21 237 14.5 32.2 0.00 0.46 0.03 55 1003.6
20260509211204 21 193 14.5 25.7 0.00 0.46 0.03 57 1003.6
20260509210704 21 194 12.9 35.4 0.00 0.46 0.03 57 1003.6
20260509210205 21 235 14.5 32.2 0.00 0.46 0.03 56 1003.6
20260509205705 21 207 11.3 32.2 0.00 0.46 0.03 58 1004.1
20260509204704 21 178 6.4 24.1 0.00 0.46 0.03 60 1004.1
20260509204205 21 244 8.0 20.9 0.00 0.46 0.03 56 1004.1
20260509203205 21 234 11.3 24.1 0.00 0.46 0.03 55 1004.2
20260509202705 21 195 9.7 35.4 0.00 0.48 0.03 58 1004.6
20260509202204 21 246 11.3 24.1 0.00 0.48 0.03 57 1004.6
20260509201704 21 245 11.3 19.3 0.00 0.48 0.03 56 1004.6
20260509201204 21 191 16.1 33.8 0.00 0.48 0.03 57 1004.6
20260509200704 21 225 14.5 29.0 0.00 0.48 0.03 55 1004.6
20260509200205 21 237 11.3 29.0 0.00 0.48 0.03 56 1004.9
20260509195704 21 193 8.0 19.3 0.00 0.48 0.03 57 1004.9
20260509194705 21 187 9.7 22.5 0.00 0.48 0.03 59 1004.9
20260509193705 21 242 11.3 24.1 0.00 0.48 0.03 58 1005.3
20260509193204 21 192 12.9 32.2 0.00 0.48 0.03 58 1005.3
20260509192205 21 181 12.9 25.7 0.00 0.48 0.03 61 1005.3
20260509191704 21 204 8.0 24.1 0.00 0.48 0.03 60 1005.3
20260509191204 21 252 1.6 22.5 0.00 0.48 0.03 59 1005.3
20260509190705 20 202 11.3 25.7 0.00 0.48 0.03 62 1005.7
20260509190204 20 224 11.3 25.7 0.00 0.48 0.03 60 1005.7
20260509185704 20 232 11.3 24.1 0.00 0.48 0.03 64 1005.7
20260509185205 20 186 8.0 19.3 0.00 0.48 0.03 62 1005.7
20260509184704 20 236 11.3 25.7 0.00 0.48 0.03 61 1005.7
20260509184205 20 244 9.7 19.3 0.00 0.48 0.03 61 1005.7
20260509183704 20 194 14.5 25.7 0.00 0.48 0.03 65 1006.0
20260509183204 19 223 9.7 20.9 0.00 0.48 0.03 64 1006.0
20260509182705 19 209 8.0 20.9 0.00 0.48 0.03 63 1006.0
20260509182205 20 201 8.0 19.3 0.00 0.48 0.03 62 1006.0
20260509181705 20 197 4.8 22.5 0.00 0.48 0.03 61 1006.0
20260509180205 20 203 11.3 20.9 0.00 0.48 0.03 64 1006.0
20260509175704 20 216 11.3 24.1 0.00 0.48 0.03 62 1006.0
20260509175205 20 237 9.7 22.5 0.00 0.48 0.03 65 1006.0
20260509174704 19 187 1.6 20.9 0.00 0.48 0.03 66 1006.0
20260509173705 19 175 8.0 22.5 0.00 0.48 0.03 66 1006.0
20260509173204 20 250 9.7 22.5 0.00 0.48 0.03 62 1006.0
20260509172705 20 217 11.3 22.5 0.00 0.48 0.03 62 1006.0
20260509171705 20 196 1.6 14.5 0.00 0.48 0.03 68 1006.0
20260509171204 19 179 9.7 24.1 0.00 0.48 0.03 67 1006.0
20260509165705 18 223 8.0 16.1 0.00 0.48 0.03 66 1006.1
20260509165204 18 246 8.0 20.9 0.00 0.48 0.03 66 1006.0
20260509164704 18 198 8.0 16.1 0.00 0.48 0.03 68 1006.0
20260509163705 17 243 4.8 19.3 0.00 0.48 0.03 70 1006.1
20260509163204 17 249 4.8 20.9 0.00 0.48 0.03 71 1006.7
20260509161205 17 192 8.0 22.5 0.00 0.48 0.03 72 1006.7
20260509160205 17 263 4.8 19.3 0.00 0.48 0.03 73 1006.7
20260509155204 17 266 3.2 19.3 0.00 0.48 0.03 74 1006.8
20260509154205 16 239 8.0 12.9 0.00 0.48 0.03 74 1006.8
20260509153705 16 278 4.8 20.9 0.00 0.48 0.03 76 1006.8
20260509152705 16 237 4.8 20.9 0.00 0.48 0.03 77 1006.8
20260509151705 15 263 8.0 19.3 0.00 0.48 0.03 80 1006.8
20260509151204 15 239 9.7 19.3 0.00 0.48 0.03 80 1006.8
20260509150705 15 250 4.8 24.1 0.00 0.48 0.03 81 1006.8
20260509150204 15 238 4.8 16.1 0.00 0.48 0.03 81 1006.8
20260509145704 15 238 4.8 12.9 0.00 0.48 0.03 83 1006.8
20260509145204 15 247 8.0 16.1 0.00 0.48 0.03 82 1006.8
20260509144704 15 247 3.2 14.5 0.00 0.48 0.03 84 1006.8
20260509144204 15 270 4.8 16.1 0.00 0.48 0.03 84 1006.7
20260509143704 15 265 1.6 12.9 0.00 0.48 0.03 84 1006.7
20260509142704 14 226 3.2 9.7 0.00 0.48 0.03 85 1006.6
20260509142204 14 221 8.0 12.9 0.00 0.48 0.03 86 1006.8
20260509141704 13 254 4.8 14.5 0.00 0.48 0.03 88 1006.8
20260509141204 13 237 3.2 12.9 0.00 0.48 0.03 88 1006.8
20260509140704 13 258 3.2 11.3 0.00 0.48 0.03 89 1006.8
20260509140205 13 249 1.6 11.3 0.00 0.48 0.03 88 1007.0
20260509134704 13 182 4.8 16.1 0.00 0.48 0.03 88 1006.9
20260509134205 13 233 4.8 20.9 0.00 0.48 0.03 89 1006.9
20260509133205 13 258 3.2 11.3 0.00 0.48 0.03 90 1006.9
20260509132704 13 225 1.6 11.3 0.00 0.48 0.03 92 1007.1
20260509132204 13 176 3.2 14.5 0.00 0.48 0.03 92 1007.1
20260509130204 12 208 1.6 8.0 0.00 0.48 0.03 95 1006.8
20260509125704 12 187 0.0 4.8 0.00 0.48 0.03 94 1006.8
20260509124705 12 210 0.0 8.0 0.00 0.48 0.03 95 1007.0
20260509124204 12 200 1.6 8.0 0.00 0.48 0.03 95 1007.0
20260509123705 12 229 0.0 8.0 0.00 0.51 0.03 95 1007.1
20260509122705 12 184 0.0 4.8 0.00 0.51 0.03 96 1007.3
20260509121705 11 202 1.6 4.8 0.00 0.64 0.03 96 1007.3
20260509121204 11 159 0.0 1.6 0.00 0.64 0.03 96 1007.3
20260509120705 11 188 1.6 11.3 0.00 0.64 0.03 96 1007.3